sat.trackr.live / text

‹ back to catalog

STARLINK-34010

NORAD 63848 · 2025-093N

PAYLOAD ACTIVE UNKNOWN

§ Identity

Operator
Country
US
Launch date
2025-05-07
Launch site
AFETR
Launch vehicle
Mass (kg)
RCS (m²)

Purposes: comms

External: N2YO · Heavens-Above · Gunter

§ Orbital elements

Epoch: 2026-05-25T00:04:42.166848Z

Period
94.27 min
Inclination
43.0031°
Eccentricity
0.0001327
Mean motion
15.27588755 rev/d
Perigee alt
482.1 km
Apogee alt
483.9 km
Semi-major
6,861.2 km
B*
3.0716e-4
RAAN
6.8959°
Arg perigee
271.6538°
Mean anomaly
88.4161°
Rev number
5,942

§ Raw data

STARLINK-340101 63848U 25093N   26145.00326582  .00008202  00000+0  30716-3 0  99932 63848  43.0031   6.8959 0001327 271.6538  88.4161 15.27588755 59425

JSON: /api/v1/satellites/63848 · /tle

For live sub-satellite position, see the globe view (requires WebGL).

§ Visibility from observer

Set your observer location to see the next 7 days of passes ≥ 10°. The values pass through the URL so the page stays shareable.

No JS? Fill the form by hand. The geolocation button needs JavaScript.